GW3424 Weather Reports


Display with metric or nautical units.
time (UTC)temp
F
wind
direction
speed
MPH
gust
MPH
rain 1hr
in
rain 24hr
in
rain mn
in
humidity
%
barometer
mb
20260904131553 82 360 8.0 13.0 0.00 0.00 0.00 65 974.4
20260904131054 82 360 8.0 13.0 0.00 0.00 0.00 65 974.3
20260904130551 82 360 9.0 12.0 0.00 0.00 0.00 65 974.2
20260904130051 82 360 7.0 12.0 0.00 0.00 0.00 65 974.2
20260904125552 82 360 7.0 13.0 0.00 0.00 0.00 65 974.0
20260904125052 82 360 8.0 13.0 0.00 0.00 0.00 65 974.0
20260904124551 82 360 8.0 13.0 0.00 0.00 0.00 65 974.0
20260904124051 81 360 8.0 13.0 0.00 0.00 0.00 66 973.9
20260904123552 81 360 6.0 9.0 0.00 0.00 0.00 66 973.9
20260904123051 80 360 6.0 9.0 0.00 0.00 0.00 66 973.8
20260904122551 80 360 7.0 9.0 0.00 0.00 0.00 65 973.7
20260904122051 81 360 6.0 9.0 0.00 0.00 0.00 64 973.7
20260904121550 82 360 5.0 8.0 0.00 0.00 0.00 63 973.7
20260904121050 82 360 6.0 8.0 0.00 0.00 0.00 63 973.6
20260904120552 82 360 4.0 5.0 0.00 0.00 0.00 62 973.6
20260904120103 83 360 3.0 6.0 0.00 0.00 0.00 62 973.7
20260904115551 83 360 4.0 6.0 0.00 0.00 0.00 61 973.6
20260904115055 83 360 4.0 8.0 0.00 0.00 0.00 61 973.6
20260904114551 83 360 5.0 8.0 0.00 0.00 0.00 60 973.6
20260904114051 84 360 6.0 9.0 0.00 0.00 0.00 60 973.5
20260904113553 84 360 7.0 9.0 0.00 0.00 0.00 59 973.5
20260904113051 84 360 4.0 6.0 0.00 0.00 0.00 59 973.5
20260904112551 84 360 4.0 6.0 0.00 0.00 0.00 58 973.6
20260904112052 84 360 3.0 5.0 0.00 0.00 0.00 58 973.6
20260904111551 85 360 4.0 6.0 0.00 0.00 0.00 57 973.5
20260904111051 85 360 3.0 9.0 0.00 0.00 0.00 56 973.5
20260904110552 85 360 5.0 9.0 0.00 0.00 0.00 56 973.6
20260904110051 85 360 5.0 8.0 0.00 0.00 0.00 56 973.5
20260904105553 85 360 3.0 6.0 0.00 0.00 0.00 56 973.5
20260904105051 85 360 3.0 6.0 0.00 0.00 0.00 55 973.4
20260904104551 85 360 2.0 4.0 0.00 0.00 0.00 55 973.4
20260904104050 85 360 2.0 5.0 0.00 0.00 0.00 55 973.4
20260904103551 85 360 3.0 6.0 0.00 0.00 0.00 54 973.4
20260904103051 85 360 4.0 8.0 0.00 0.00 0.00 54 973.5
20260904102551 85 360 2.0 8.0 0.00 0.00 0.00 54 973.4
20260904102052 86 360 4.0 8.0 0.00 0.00 0.00 54 973.2
20260904101551 86 360 1.0 4.0 0.00 0.00 0.00 54 973.1
20260904101051 85 360 0.0 4.0 0.00 0.00 0.00 54 973.0
20260904100551 85 360 2.0 4.0 0.00 0.00 0.00 56 973.2
20260904100052 85 360 1.0 2.0 0.00 0.00 0.00 56 973.0
20260904095552 84 360 1.0 2.0 0.00 0.00 0.00 57 972.9
20260904095051 84 360 0.0 4.0 0.00 0.00 0.00 59 972.9
20260904094558 84 360 2.0 5.0 0.00 0.00 0.00 59 972.9
20260904094051 83 360 3.0 5.0 0.00 0.00 0.00 60 973.0
20260904093551 83 360 3.0 8.0 0.00 0.00 0.00 60 973.0
20260904093103 84 360 3.0 9.0 0.00 0.00 0.00 59 973.0
20260904092551 84 360 0.0 8.0 0.00 0.00 0.00 58 972.8
20260904092051 84 360 0.0 1.0 0.00 0.00 0.00 58 972.7
20260904091551 84 360 0.0 2.0 0.00 0.00 0.00 58 972.8
20260904091051 84 360 1.0 2.0 0.00 0.00 0.00 59 972.8
20260904090550 84 360 0.0 4.0 0.00 0.00 0.00 58 972.9
20260904090051 85 360 0.0 4.0 0.00 0.00 0.00 59 972.8
20260904085553 85 360 1.0 5.0 0.00 0.00 0.00 58 972.8
20260904085051 85 360 3.0 5.0 0.00 0.00 0.00 58 972.8
20260904084551 85 360 0.0 3.0 0.00 0.00 0.00 57 972.9
20260904084050 85 360 0.0 5.0 0.00 0.00 0.00 57 972.9
20260904083551 85 360 2.0 5.0 0.00 0.00 0.00 58 972.9
20260904083051 85 360 2.0 4.0 0.00 0.00 0.00 58 972.9
20260904082552 85 360 1.0 4.0 0.00 0.00 0.00 58 972.9
20260904082054 85 360 2.0 5.0 0.00 0.00 0.00 58 973.0
20260904081551 85 360 2.0 6.0 0.00 0.00 0.00 58 973.1
20260904081051 85 360 3.0 10.0 0.00 0.00 0.00 56 973.0
20260904080551 86 360 7.0 10.0 0.00 0.00 0.00 54 973.0
20260904080053 87 360 6.0 10.0 0.00 0.00 0.00 51 972.9
20260904075551 88 360 2.0 6.0 0.00 0.00 0.00 49 973.0
20260904075052 89 360 1.0 4.0 0.00 0.00 0.00 47 972.9
20260904074556 89 360 2.0 4.0 0.00 0.00 0.00 47 972.9
20260904074051 89 360 2.0 4.0 0.00 0.00 0.00 47 972.9
20260904073552 90 360 2.0 4.0 0.00 0.00 0.00 46 972.9
20260904073051 90 360 1.0 4.0 0.00 0.00 0.00 45 972.9
20260904072551 91 360 0.0 3.0 0.00 0.00 0.00 44 973.0
20260904072051 91 360 0.0 3.0 0.00 0.00 0.00 44 973.0
20260904071551 92 360 0.0 2.0 0.00 0.00 0.00 44 972.9
20260904071051 92 360 0.0 5.0 0.00 0.00 0.00 44 972.9
20260904070551 92 360 3.0 6.0 0.00 0.00 0.00 42 972.8
20260904070058 92 360 4.0 6.0 0.00 0.00 0.00 41 973.0
20260904065550 92 360 3.0 6.0 0.00 0.00 0.00 42 972.9
20260904065051 92 360 2.0 6.0 0.00 0.00 0.00 41 972.7
20260904064551 92 360 3.0 8.0 0.00 0.00 0.00 41 972.9
20260904064051 92 360 4.0 8.0 0.00 0.00 0.00 41 972.8
20260904063553 93 360 5.0 8.0 0.00 0.00 0.00 41 972.7
20260904063053 93 360 3.0 8.0 0.00 0.00 0.00 41 972.7
20260904062551 93 360 4.0 9.0 0.00 0.00 0.00 41 972.7
20260904062051 93 360 6.0 9.0 0.00 0.00 0.00 41 972.6
20260904061551 93 360 5.0 9.0 0.00 0.00 0.00 41 972.5
20260904061051 93 360 4.0 9.0 0.00 0.00 0.00 41 972.5
20260904060551 93 360 4.0 10.0 0.00 0.00 0.00 41 972.7
20260904060051 93 360 5.0 13.0 0.00 0.00 0.00 41 972.5
20260904055551 92 360 5.0 13.0 0.00 0.00 0.00 42 972.5
20260904055051 91 360 5.0 11.0 0.00 0.00 0.00 43 972.5
20260904054553 91 360 4.0 9.0 0.00 0.00 0.00 43 972.4
20260904054050 92 360 6.0 10.0 0.00 0.00 0.00 43 972.4
20260904053551 94 360 3.0 10.0 0.00 0.00 0.00 40 972.5
20260904053051 94 360 2.0 11.0 0.00 0.00 0.00 39 972.5
20260904052551 94 360 5.0 13.0 0.00 0.00 0.00 39 972.2
20260904052051 94 360 8.0 13.0 0.00 0.00 0.00 39 972.3
20260904051558 94 360 6.0 11.0 0.00 0.00 0.00 39 972.3
20260904051050 93 360 4.0 8.0 0.00 0.00 0.00 40 972.3
20260904050551 92 360 2.0 6.0 0.00 0.00 0.00 41 972.3
20260904050051 92 360 1.0 9.0 0.00 0.00 0.00 43 972.2
20260904045551 93 360 5.0 10.0 0.00 0.00 0.00 42 972.3
20260904045051 95 360 5.0 13.0 0.00 0.00 0.00 39 972.2
20260904044551 95 360 8.0 13.0 0.00 0.00 0.00 37 972.2
20260904044051 95 360 7.0 13.0 0.00 0.00 0.00 38 972.2
20260904043551 94 360 8.0 12.0 0.00 0.00 0.00 39 971.9
20260904043054 92 360 3.0 10.0 0.00 0.00 0.00 41 971.9
20260904042551 90 360 5.0 12.0 0.00 0.00 0.00 47 972.0
20260904042051 89 360 9.0 12.0 0.00 0.00 0.00 49 972.1
20260904041551 89 360 9.0 12.0 0.00 0.00 0.00 50 971.9
20260904041051 89 360 9.0 12.0 0.00 0.00 0.00 50 972.1
20260904040553 89 360 9.0 13.0 0.00 0.00 0.00 50 972.0
20260904035551 89 360 10.0 13.0 0.00 0.00 0.00 50 972.0
20260904035053 89 360 10.0 14.0 0.00 0.00 0.00 50 971.8
20260904034554 90 360 10.0 15.0 0.00 0.00 0.00 49 971.8
20260904034051 90 360 11.0 15.0 0.00 0.00 0.00 49 971.7
20260904033551 90 360 10.0 13.0 0.00 0.00 0.00 48 971.8
20260904033051 90 360 9.0 13.0 0.00 0.00 0.00 48 971.6
20260904032550 90 360 8.0 14.0 0.00 0.00 0.00 48 971.5
20260904032050 90 360 9.0 14.0 0.00 0.00 0.00 48 971.5
20260904031551 90 360 10.0 14.0 0.00 0.00 0.00 47 971.5
20260904031051 91 360 11.0 17.0 0.00 0.00 0.00 47 971.3
20260904030551 91 360 11.0 17.0 0.00 0.00 0.00 46 971.2
20260904030056 92 360 8.0 12.0 0.00 0.00 0.00 46 971.2
20260904025553 92 360 6.0 13.0 0.00 0.00 0.00 45 971.3
20260904025052 92 360 7.0 12.0 0.00 0.00 0.00 45 971.2
20260904024554 92 360 9.0 12.0 0.00 0.00 0.00 44 971.1
20260904024053 93 360 5.0 10.0 0.00 0.00 0.00 44 971.0
20260904023551 93 360 4.0 19.0 0.00 0.00 0.00 44 971.0
20260904023058 93 360 9.0 19.0 0.00 0.00 0.00 44 970.9
20260904022551 93 360 13.0 17.0 0.00 0.00 0.00 43 970.9
20260904022051 94 360 13.0 17.0 0.00 0.00 0.00 42 970.8
20260904021556 95 360 10.0 14.0 0.00 0.00 0.00 41 970.8
20260904021051 96 360 2.0 13.0 0.00 0.00 0.00 39 970.7
20260904020551 97 360 9.0 13.0 0.00 0.00 0.00 38 970.7
20260904020053 97 360 8.0 15.0 0.00 0.00 0.00 37 970.6
20260904015551 98 13 5.0 19.0 0.00 0.00 0.00 37 970.6
20260904015051 99 360 13.0 19.0 0.00 0.00 0.00 34 970.6
20260904014559 100 360 8.0 13.0 0.00 0.00 0.00 28 970.5
20260904014051 100 13 8.0 13.0 0.00 0.00 0.00 28 970.3
20260904013551 100 88 3.0 10.0 0.00 0.00 0.00 28 970.3
20260904013051 99 183 3.0 7.0 0.00 0.00 0.00 30 970.2
20260904012551 99 211 1.0 7.0 0.00 0.00 0.00 33 970.3
20260904012051 99 281 4.0 7.0 0.00 0.00 0.00 33 970.2
20260904011551 99 286 2.0 6.0 0.00 0.00 0.00 32 970.1
20260904011051 100 360 3.0 12.0 0.00 0.00 0.00 32 970.1
20260904010551 100 275 7.0 12.0 0.00 0.00 0.00 30 970.2
20260904010053 100 319 3.0 6.0 0.00 0.00 0.00 31 970.3
20260904005550 100 44 2.0 6.0 0.00 0.00 0.00 31 970.3
20260904005051 100 360 4.0 6.0 0.00 0.00 0.00 30 970.3
20260904004552 100 294 2.0 6.0 0.00 0.00 0.00 32 970.2
20260904004052 100 311 5.0 10.0 0.00 0.00 0.00 32 970.3
20260904003550 100 297 6.0 10.0 0.00 0.00 0.00 31 970.3
20260904003051 100 318 6.0 11.0 0.00 0.00 0.00 32 970.4
20260904002551 100 360 9.0 12.0 0.00 0.00 0.00 31 970.3
20260904002051 101 330 7.0 12.0 0.00 0.00 0.00 31 970.3
20260904001550 101 271 4.0 7.0 0.00 0.00 0.00 29 970.3
20260904001051 101 257 3.0 8.0 0.00 0.00 0.00 29 970.2
20260904000551 100 360 4.0 8.0 0.00 0.00 0.00 30 970.3
20260904000100 100 188 4.0 5.0 0.00 0.00 0.00 31 970.4
20260903235553 100 178 1.0 6.0 0.00 0.00 0.00 31 970.4
20260903235050 100 178 2.0 7.0 0.00 0.00 0.00 31 970.4
20260903234551 100 183 5.0 8.0 0.00 0.00 0.00 31 970.4
20260903234051 100 360 4.0 9.0 0.00 0.00 0.00 31 970.4
20260903233551 101 236 3.0 9.0 0.00 0.00 0.00 31 970.4
20260903233055 101 237 0.0 9.0 0.00 0.00 0.00 30 970.5
20260903232551 101 270 5.0 9.0 0.00 0.00 0.00 30 970.5
20260903232051 101 240 5.0 8.0 0.00 0.00 0.00 31 970.5
20260903231554 100 231 2.0 9.0 0.00 0.00 0.00 31 970.6
20260903231050 100 234 4.0 10.0 0.00 0.00 0.00 31 970.6
20260903230551 100 234 5.0 12.0 0.00 0.00 0.00 31 970.7
20260903230053 100 243 3.0 12.0 0.00 0.00 0.00 31 970.8
20260903225551 100 283 7.0 12.0 0.00 0.00 0.00 31 970.9
20260903225051 101 275 7.0 11.0 0.00 0.00 0.00 31 970.9
20260903224610 101 347 3.0 10.0 0.00 0.00 0.00 30 970.9
20260903224052 101 9 7.0 12.0 0.00 0.00 0.00 30 970.9
20260903223552 102 65 6.0 12.0 0.00 0.00 0.00 30 971.0
20260903223051 102 347 4.0 11.0 0.00 0.00 0.00 29 971.0
20260903222551 102 13 2.0 10.0 0.00 0.00 0.00 30 971.0
20260903222051 101 223 5.0 11.0 0.00 0.00 0.00 31 971.0
20260903221551 100 294 5.0 11.0 0.00 0.00 0.00 31 971.2
20260903221050 99 276 7.0 13.0 0.00 0.00 0.00 31 971.3
20260903220551 100 292 8.0 13.0 0.00 0.00 0.00 31 971.4
20260903220051 100 346 8.0 13.0 0.00 0.00 0.00 32 971.6
20260903215552 100 320 7.0 13.0 0.00 0.00 0.00 31 971.6
20260903215052 100 306 8.0 15.0 0.00 0.00 0.00 32 971.7
20260903214607 100 340 10.0 15.0 0.00 0.00 0.00 31 971.7
20260903214053 100 320 7.0 13.0 0.00 0.00 0.00 31 971.8
20260903213550 99 324 9.0 15.0 0.00 0.00 0.00 32 972.0
20260903213100 99 294 8.0 16.0 0.00 0.00 0.00 32 972.1
20260903212552 100 317 12.0 16.0 0.00 0.00 0.00 32 972.1
20260903212051 99 54 6.0 15.0 0.00 0.00 0.00 31 972.2
20260903211551 99 74 6.0 15.0 0.00 0.00 0.00 32 972.3
20260903211051 98 96 3.0 12.0 0.00 0.00 0.00 32 972.4
20260903210551 99 114 7.0 14.0 0.00 0.00 0.00 31 972.4
20260903210122 100 38 9.0 17.0 0.00 0.00 0.00 30 972.4
20260903205551 100 360 11.0 17.0 0.00 0.00 0.00 30 972.5
20260903205051 100 28 4.0 16.0 0.00 0.00 0.00 31 972.6
20260903204552 99 52 10.0 15.0 0.00 0.00 0.00 31 972.6
20260903204053 99 313 4.0 16.0 0.00 0.00 0.00 32 972.8
20260903203550 99 66 11.0 16.0 0.00 0.00 0.00 31 972.8
20260903203107 99 36 3.0 17.0 0.00 0.00 0.00 31 973.0
20260903202554 99 51 10.0 17.0 0.00 0.00 0.00 31 973.1
20260903202053 99 73 5.0 14.0 0.00 0.00 0.00 31 973.1
20260903201552 99 126 5.0 16.0 0.00 0.00 0.00 32 973.1
20260903201051 98 59 10.0 16.0 0.00 0.00 0.00 31 973.3
20260903200551 99 96 6.0 17.0 0.00 0.00 0.00 31 973.4
20260903200055 100 53 7.0 16.0 0.00 0.00 0.00 31 973.4
20260903195551 99 271 6.0 11.0 0.00 0.00 0.00 33 973.6
20260903195051 98 88 4.0 16.0 0.00 0.00 0.00 32 973.6
20260903194551 98 326 9.0 16.0 0.00 0.00 0.00 34 973.7
20260903194050 98 57 7.0 12.0 0.00 0.00 0.00 33 973.7
20260903193551 98 286 4.0 12.0 0.00 0.00 0.00 34 973.6
20260903193051 98 309 6.0 12.0 0.00 0.00 0.00 34 973.7
20260903192552 98 99 7.0 11.0 0.00 0.00 0.00 34 973.9
20260903192050 99 59 7.0 11.0 0.00 0.00 0.00 33 973.9
20260903191551 98 32 6.0 19.0 0.00 0.00 0.00 34 974.0
20260903191052 97 268 6.0 19.0 0.00 0.00 0.00 35 974.1
20260903190551 97 294 10.0 18.0 0.00 0.00 0.00 35 974.3
20260903190051 97 300 8.0 18.0 0.00 0.00 0.00 36 974.4
20260903185550 97 303 9.0 15.0 0.00 0.00 0.00 36 974.4
20260903185051 97 246 7.0 12.0 0.00 0.00 0.00 36 974.5
20260903184551 96 85 2.0 11.0 0.00 0.00 0.00 38 974.6
20260903184051 96 117 7.0 14.0 0.00 0.00 0.00 37 974.6
20260903183551 97 21 6.0 14.0 0.00 0.00 0.00 36 974.8
20260903183051 97 59 6.0 10.0 0.00 0.00 0.00 37 974.9
20260903182551 97 54 4.0 11.0 0.00 0.00 0.00 36 975.0
20260903182051 98 307 6.0 11.0 0.00 0.00 0.00 37 975.0
20260903181550 98 236 2.0 8.0 0.00 0.00 0.00 36 975.1
20260903181050 98 205 2.0 4.0 0.00 0.00 0.00 36 975.2
20260903180552 97 278 2.0 10.0 0.00 0.00 0.00 37 975.4
20260903180051 97 277 4.0 10.0 0.00 0.00 0.00 37 975.6
20260903175550 96 22 2.0 9.0 0.00 0.00 0.00 38 975.5
20260903175050 96 310 4.0 9.0 0.00 0.00 0.00 38 975.6
20260903174551 96 283 1.0 7.0 0.00 0.00 0.00 38 975.7
20260903174050 96 226 1.0 7.0 0.00 0.00 0.00 38 975.8
20260903173551 96 233 4.0 12.0 0.00 0.00 0.00 38 975.8
20260903173051 95 11 3.0 12.0 0.00 0.00 0.00 39 975.7
20260903172552 95 355 2.0 9.0 0.00 0.00 0.00 39 975.8
20260903172051 94 360 2.0 4.0 0.00 0.00 0.00 40 975.9
20260903171551 93 360 0.0 10.0 0.00 0.00 0.00 41 975.9
20260903171051 93 360 5.0 10.0 0.00 0.00 0.00 41 975.8
20260903170551 92 360 5.0 15.0 0.00 0.00 0.00 42 975.7
20260903170051 93 360 4.0 15.0 0.00 0.00 0.00 41 975.7
20260903165551 93 360 5.0 11.0 0.00 0.00 0.00 42 975.8
20260903165051 92 360 4.0 10.0 0.00 0.00 0.00 42 975.9
20260903164551 92 360 5.0 12.0 0.00 0.00 0.00 42 975.9
20260903164051 92 22 3.0 12.0 0.00 0.00 0.00 43 975.9
20260903163552 92 24 3.0 12.0 0.00 0.00 0.00 43 975.9
20260903163056 92 304 8.0 12.0 0.00 0.00 0.00 44 975.9
20260903162551 91 19 6.0 14.0 0.00 0.00 0.00 44 976.1
20260903162051 91 19 7.0 13.0 0.00 0.00 0.00 45 976.0
20260903161554 91 360 6.0 12.0 0.00 0.00 0.00 47 976.0
20260903161050 91 360 5.0 12.0 0.00 0.00 0.00 47 976.0
20260903160551 90 360 7.0 12.0 0.00 0.00 0.00 48 976.0
20260903160057 90 360 6.0 12.0 0.00 0.00 0.00 48 976.0
20260903155550 90 360 7.0 11.0 0.00 0.00 0.00 48 976.1
20260903155051 90 360 6.0 12.0 0.00 0.00 0.00 48 976.1
20260903154606 90 360 8.0 12.0 0.00 0.00 0.00 48 976.2
20260903154053 90 360 4.0 14.0 0.00 0.00 0.00 47 976.2
20260903153550 90 360 6.0 14.0 0.00 0.00 0.00 48 976.2
20260903153052 90 360 5.0 13.0 0.00 0.00 0.00 48 976.1
20260903152552 90 360 8.0 13.0 0.00 0.00 0.00 48 976.2
20260903152053 90 360 8.0 12.0 0.00 0.00 0.00 48 976.2
20260903151551 89 360 4.0 8.0 0.00 0.00 0.00 49 976.3
20260903151051 89 360 3.0 8.0 0.00 0.00 0.00 49 976.3
20260903150551 89 360 0.0 8.0 0.00 0.00 0.00 50 976.3
20260903150051 88 360 2.0 8.0 0.00 0.00 0.00 51 976.3
20260903145553 88 360 4.0 10.0 0.00 0.00 0.00 52 976.4
20260903145051 88 360 5.0 10.0 0.00 0.00 0.00 52 976.3
20260903144559 88 360 2.0 4.0 0.00 0.00 0.00 54 976.3
20260903144054 87 360 2.0 6.0 0.00 0.00 0.00 55 976.3
20260903143550 87 360 3.0 8.0 0.00 0.00 0.00 56 976.3
20260903143104 88 360 3.0 8.0 0.00 0.00 0.00 55 976.2
20260903142551 87 360 4.0 8.0 0.00 0.00 0.00 54 976.1
20260903142051 87 360 3.0 9.0 0.00 0.00 0.00 55 976.1
20260903141601 87 360 5.0 10.0 0.00 0.00 0.00 55 976.0
20260903141051 86 360 4.0 10.0 0.00 0.00 0.00 56 975.9
20260903140551 86 360 4.0 8.0 0.00 0.00 0.00 56 975.9
20260903140051 86 360 3.0 5.0 0.00 0.00 0.00 56 975.9
20260903135550 85 18 2.0 5.0 0.00 0.00 0.00 57 975.7
20260903135051 85 360 2.0 6.0 0.00 0.00 0.00 57 975.6
20260903134557 85 360 3.0 8.0 0.00 0.00 0.00 57 975.5
20260903134051 85 360 4.0 8.0 0.00 0.00 0.00 57 975.5
20260903133551 85 360 3.0 8.0 0.00 0.00 0.00 57 975.4
20260903133051 85 360 4.0 9.0 0.00 0.00 0.00 58 975.4
20260903132550 85 360 5.0 9.0 0.00 0.00 0.00 58 975.4
20260903132050 85 360 7.0 9.0 0.00 0.00 0.00 58 975.5